Change the Weather History Date:

Sunday, March 9, 2014

  Actual Average (KARV) Record (KARV)
Temperature  
Mean Temperature 22 °F -  
Max Temperature 38 °F 36 °F 60 °F (1977)
Min Temperature 6 °F 8 °F -24 °F (1943)
Degree Days  
Heating Degree Days 43    
Moisture  
Dew Point 17 °F    
Average Humidity 71    
Maximum Humidity 94    
Minimum Humidity 57    
Precipitation  
Precipitation 0.00 in - - ()
Sea Level Pressure  
Sea Level Pressure 29.75 in    
Wind  
Wind Speed 6 mph (SW)    
Max Wind Speed 16 mph    
Max Gust Speed 26 mph    
Visibility 10 miles    
Events      
Averages and records for this station are not official NWS values.
T = Trace of Precipitation, MM = Missing Value Source: NWS Daily Summary

Daily Weather History Graph

Daily Weather History Graph

Search for Another Location

Airport or City:

Trip Planner

Search our weather history database for the weather conditions in past years. The results will help you decide how hot, cold, wet, or windy it might be!

Date:

Astronomy

Mar. 09, 2014 Rise Set
Actual Time 7:23 AM CDT 6:57 PM CDT
Civil Twilight 6:53 AM CDT 7:27 PM CDT
Nautical Twilight 6:19 AM CDT 8:01 PM CDT
Astronomical Twilight 5:44 AM CDT 8:36 PM CDT
Moon 12:35 PM CDT (3/9) 3:03 AM CDT (3/9)
Length of Visible Light 12h 33m
Length of Day
11h 33m
First Quarter, 61% of the Moon is Illuminated
Mar 9
First Quarter
Mar 16
Full
Mar 23
Last Quarter
Mar 30
New
Apr 7
First Quarter

Hourly Weather History & Observations

Time (CDT) Temp. Windchill Dew Point Humidity Pressure Visibility Wind Dir Wind Speed Gust Speed Precip Events Conditions
12:15 AM 6.6 °F - 2.3 °F 82% 30.05 in 10.0 mi Calm Calm - N/A   Clear
12:35 AM 7.3 °F 0.5 °F 2.1 °F 79% 30.05 in 10.0 mi SW 3.5 mph - N/A   Clear
12:55 AM 9.5 °F 3.0 °F 3.4 °F 76% 30.04 in 10.0 mi SW 3.5 mph - N/A   Clear
1:15 AM 8.8 °F 2.2 °F 2.8 °F 77% 30.04 in 10.0 mi SW 3.5 mph - N/A   Clear
1:35 AM 6.8 °F - 1.4 °F 79% 30.04 in 10.0 mi Calm Calm - N/A   Clear
1:55 AM 7.9 °F 1.2 °F 1.9 °F 77% 30.01 in 10.0 mi SSW 3.5 mph - N/A   Clear
3:15 AM 7.2 °F -1.5 °F 1.6 °F 78% 30.01 in 10.0 mi SSW 4.6 mph - N/A   Clear
3:35 AM 8.4 °F -0.1 °F 2.1 °F 76% 29.99 in 10.0 mi SSW 4.6 mph - N/A   Clear
3:55 AM 9.9 °F 0.2 °F 3.2 °F 74% 29.99 in 10.0 mi SSW 5.8 mph - N/A   Scattered Clouds
4:15 AM 11.3 °F 3.3 °F 4.1 °F 73% 29.98 in 10.0 mi SSW 4.6 mph - N/A   Overcast
4:35 AM 11.7 °F 5.5 °F 4.5 °F 73% 29.98 in 10.0 mi SW 3.5 mph - N/A   Overcast
4:55 AM 12.7 °F 3.6 °F 5.7 °F 74% 29.97 in 10.0 mi SW 5.8 mph - N/A   Overcast
5:15 AM 13.1 °F 5.4 °F 5.9 °F 73% 29.96 in 10.0 mi SSW 4.6 mph - N/A   Overcast
5:35 AM 13.3 °F 5.6 °F 6.1 °F 73% 29.95 in 10.0 mi SSW 4.6 mph - N/A   Mostly Cloudy
5:55 AM 13.1 °F 2.8 °F 5.9 °F 73% 29.93 in 10.0 mi SSW 6.9 mph - N/A   Scattered Clouds
6:15 AM 13.1 °F 4.0 °F 5.9 °F 73% 29.93 in 10.0 mi SSW 5.8 mph - N/A   Scattered Clouds
6:35 AM 13.6 °F 4.6 °F 6.6 °F 74% 29.92 in 10.0 mi SSW 5.8 mph - N/A   Overcast
6:55 AM 14.4 °F 4.3 °F 7.7 °F 75% 29.91 in 10.0 mi South 6.9 mph - N/A   Overcast
7:15 AM 14.9 °F 4.0 °F 9.0 °F 77% 29.90 in 10.0 mi SSW 8.1 mph - N/A   Mostly Cloudy
7:35 AM 15.4 °F 4.6 °F 10.4 °F 80% 29.89 in 10.0 mi South 8.1 mph - N/A   Scattered Clouds
7:55 AM 16.3 °F 4.1 °F 11.3 °F 81% 29.87 in 10.0 mi SSW 10.4 mph - N/A   Clear
8:15 AM 17.2 °F 6.8 °F 12.2 °F 81% 29.87 in 10.0 mi SSW 8.1 mph - N/A   Clear
8:35 AM 18.9 °F 7.2 °F 13.1 °F 78% 29.86 in 10.0 mi SSW 10.4 mph 17.3 mph N/A   Clear
8:55 AM 20.1 °F 8.1 °F 13.6 °F 76% 29.84 in 10.0 mi SSW 11.5 mph 18.4 mph N/A   Scattered Clouds
9:15 AM 20.7 °F 10.2 °F 13.6 °F 74% 29.82 in 10.0 mi SSW 9.2 mph - N/A   Mostly Cloudy
9:30 AM 21.4 °F 10.4 °F 14.0 °F 73% 29.81 in 10.0 mi SSW 10.4 mph - N/A   Overcast
9:55 AM 23.5 °F 13.7 °F 14.7 °F 69% 29.79 in 10.0 mi SSW 9.2 mph 17.3 mph N/A   Overcast
10:15 AM 23.9 °F 12.9 °F 15.3 °F 70% 29.78 in 10.0 mi SSW 11.5 mph 18.4 mph N/A   Mostly Cloudy
10:35 AM 24.8 °F 14.6 °F 16.0 °F 69% 29.77 in 10.0 mi SSW 10.4 mph 17.3 mph N/A   Clear
10:55 AM 25.5 °F 14.3 °F 16.5 °F 69% 29.75 in 10.0 mi SSW 12.7 mph 17.3 mph N/A   Clear
11:15 AM 26.4 °F 14.5 °F 17.1 °F 68% 29.74 in 10.0 mi SSW 15.0 mph 20.7 mph N/A   Clear
11:35 AM 27.5 °F 17.4 °F 18.0 °F 67% 29.72 in 10.0 mi SSW 11.5 mph 17.3 mph N/A   Clear
11:55 AM 29.1 °F 20.0 °F 19.0 °F 66% 29.70 in 10.0 mi SSW 10.4 mph 16.1 mph N/A   Mostly Cloudy
12:15 PM 30.4 °F 22.2 °F 19.4 °F 64% 29.70 in 10.0 mi SW 9.2 mph - N/A   Mostly Cloudy
12:35 PM 31.8 °F 21.0 °F 20.5 °F 63% 29.69 in 10.0 mi SW 16.1 mph 21.9 mph N/A   Scattered Clouds
12:55 PM 32.5 °F 22.3 °F 21.2 °F 63% 29.68 in 10.0 mi SSW 15.0 mph 19.6 mph N/A   Mostly Cloudy
1:15 PM 33.4 °F 24.8 °F 21.9 °F 63% 29.67 in 10.0 mi SSW 11.5 mph 17.3 mph N/A   Overcast
1:35 PM 34.9 °F 26.2 °F 22.1 °F 60% 29.65 in 10.0 mi SSW 12.7 mph 24.2 mph N/A   Overcast
1:55 PM 36.0 °F 27.5 °F 22.3 °F 58% 29.64 in 10.0 mi SW 12.7 mph 21.9 mph N/A   Mostly Cloudy
2:15 PM 36.5 °F 27.4 °F 22.6 °F 57% 29.62 in 10.0 mi SW 15.0 mph 26.5 mph N/A   Scattered Clouds
2:35 PM 36.0 °F 27.1 °F 22.8 °F 59% 29.61 in 10.0 mi SW 13.8 mph 19.6 mph N/A   Scattered Clouds
2:55 PM 35.6 °F 26.6 °F 22.5 °F 59% 29.61 in 10.0 mi SW 13.8 mph 23.0 mph N/A   Mostly Cloudy
3:15 PM 35.6 °F 27.1 °F 22.8 °F 60% 29.61 in 10.0 mi WSW 12.7 mph 17.3 mph N/A   Overcast
3:35 PM 36.0 °F 28.0 °F 23.0 °F 59% 29.60 in 10.0 mi SW 11.5 mph 18.4 mph N/A   Overcast
3:55 PM 36.1 °F 28.2 °F 23.4 °F 60% 29.60 in 10.0 mi SW 11.5 mph - N/A   Mostly Cloudy
4:15 PM 36.7 °F 29.9 °F 23.9 °F 60% 29.59 in 10.0 mi WSW 9.2 mph 16.1 mph N/A   Clear
4:35 PM 37.0 °F 31.0 °F 24.1 °F 59% 29.59 in 10.0 mi SW 8.1 mph - N/A   Clear
4:55 PM 37.9 °F 30.5 °F 24.6 °F 59% 29.59 in 10.0 mi SW 11.5 mph - N/A   Clear
5:15 PM 38.7 °F 32.4 °F 24.8 °F 58% 29.58 in 10.0 mi SW 9.2 mph - N/A   Clear
5:35 PM 38.7 °F 32.9 °F 25.3 °F 59% 29.58 in 10.0 mi SW 8.1 mph - N/A   Clear
5:55 PM 38.8 °F 33.2 °F 25.7 °F 59% 29.58 in 10.0 mi SW 8.1 mph - N/A   Mostly Cloudy
6:15 PM 38.5 °F 32.7 °F 25.7 °F 60% 29.59 in 10.0 mi SW 8.1 mph - N/A   Overcast
6:35 PM 37.8 °F 31.3 °F 25.9 °F 62% 29.60 in 10.0 mi SW 9.2 mph - N/A   Overcast
6:55 PM 37.4 °F 31.4 °F 25.9 °F 63% 29.60 in 10.0 mi SW 8.1 mph - N/A   Scattered Clouds
7:15 PM 37.0 °F 32.4 °F 26.1 °F 65% 29.60 in 10.0 mi SW 5.8 mph - N/A   Scattered Clouds
7:35 PM 37.0 °F 31.6 °F 26.2 °F 65% 29.61 in 10.0 mi WSW 6.9 mph - N/A   Overcast
7:55 PM 36.9 °F 32.2 °F 26.6 °F 66% 29.60 in 10.0 mi SW 5.8 mph - N/A   Overcast
8:15 PM 36.5 °F 31.8 °F 26.6 °F 67% 29.61 in 10.0 mi WSW 5.8 mph - N/A   Overcast
8:35 PM 36.5 °F 31.8 °F 26.6 °F 67% 29.61 in 10.0 mi WSW 5.8 mph - N/A   Mostly Cloudy
8:55 PM 35.8 °F 31.9 °F 26.6 °F 69% 29.60 in 10.0 mi WSW 4.6 mph - N/A   Scattered Clouds
9:15 PM 35.4 °F 31.5 °F 26.6 °F 70% 29.61 in 10.0 mi WSW 4.6 mph - N/A   Mostly Cloudy
9:35 PM 35.1 °F 32.2 °F 26.8 °F 72% 29.61 in 10.0 mi WSW 3.5 mph - N/A   Mostly Cloudy
9:55 PM 34.5 °F 30.4 °F 26.6 °F 73% 29.60 in 10.0 mi WSW 4.6 mph - N/A   Mostly Cloudy
10:15 PM 34.0 °F 29.8 °F 26.8 °F 75% 29.61 in 10.0 mi SW 4.6 mph - N/A   Mostly Cloudy
10:35 PM 33.8 °F 30.8 °F 26.8 °F 75% 29.61 in 10.0 mi SW 3.5 mph - N/A   Mostly Cloudy
10:55 PM 32.9 °F 29.8 °F 26.8 °F 78% 29.60 in 10.0 mi SW 3.5 mph - N/A   Overcast
11:15 PM 33.3 °F 30.2 °F 27.3 °F 79% 29.60 in 10.0 mi SW 3.5 mph - N/A   Overcast
11:35 PM 32.2 °F - 27.0 °F 81% 29.60 in 10.0 mi Calm Calm - N/A   Overcast
11:55 PM 31.8 °F - 26.8 °F 82% 29.59 in 10.0 mi Calm Calm - N/A   Mostly Cloudy
12:15 AM 29.1 °F - 25.7 °F 87% 29.59 in 10.0 mi Calm Calm - N/A   Scattered Clouds
12:35 AM 26.6 °F - 24.6 °F 92% 29.59 in 10.0 mi Calm Calm - N/A   Scattered Clouds
12:55 AM 25.9 °F - 24.3 °F 94% 29.59 in 10.0 mi Calm Calm - N/A   Clear